Weather History for Wooster, OH

Change the Weather History Date:

Tuesday, January 1, 2013

  Actual Average Record
Temperature  
Mean Temperature 20 °F -  
Max Temperature 30 °F 34 °F 54 °F (2011)
Min Temperature 6 °F 21 °F 6 °F (2002)
Degree Days  
Heating Degree Days 45    
Moisture  
Dew Point 21 °F    
Average Humidity 85    
Maximum Humidity 96    
Minimum Humidity 75    
Precipitation  
Precipitation 0.00 in - - ()
Sea Level Pressure  
Sea Level Pressure 30.05 in    
Wind  
Wind Speed 8 mph (NW)    
Max Wind Speed 14 mph    
Max Gust Speed 17 mph    
Visibility 7 miles    
Events Rain    
Averages and records for this station are not official NWS values.
T = Trace of Precipitation, MM = Missing Value Source: NWS Daily Summary

Daily Weather History Graph

Daily Weather History Graph

Search for Another Location

Airport:

Trip Planner

Search our weather history database for the weather conditions in past years. The results will help you decide how hot, cold, wet, or windy it might be!

Date:

Astronomy

Jan. 01, 2013 Rise Set
Actual Time 7:52 AM EST 5:10 PM EST
Civil Twilight 7:21 AM EST 5:41 PM EST
Nautical Twilight 6:46 AM EST 6:15 PM EST
Astronomical Twilight 6:13 AM EST 6:49 PM EST
Moon 9:42 PM EST (1/1) 10:01 AM EST (1/1)
Length of Visible Light 10h 20m
Length of Day
9h 18m
Waning Gibbous, 83% of the Moon is Illuminated
Jan 1
Waning Gibbous
Jan 4
Last Quarter
Jan 11
New
Jan 18
First Quarter
Jan 26
Full

Hourly Weather History & Observations

Time (EST) Temp. Windchill Dew Point Humidity Pressure Visibility Wind Dir Wind Speed Gust Speed Precip Events Conditions
12:36 AM 30.2 °F 21.3 °F 28.4 °F 93% 30.01 in 3.0 mi West 10.4 mph - 0.00 in Rain Light Freezing Rain
12:45 AM 30.2 °F 20.8 °F 28.4 °F 93% 30.01 in 2.5 mi West 11.5 mph - 0.00 in Rain Light Freezing Rain
1:14 AM 30.2 °F 21.9 °F 28.4 °F 93% 29.99 in 3.0 mi WNW 9.2 mph - 0.00 in Rain Light Freezing Rain
1:43 AM 30.2 °F 22.6 °F 28.4 °F 93% 29.99 in 4.0 mi West 8.1 mph - 0.00 in   Overcast
1:56 AM 30.0 °F 22.4 °F 28.9 °F 96% 30.03 in 5.0 mi West 8.1 mph - 0.00 in   Overcast
2:56 AM 30.0 °F 23.2 °F 28.0 °F 92% 30.03 in 6.0 mi West 6.9 mph - N/A   Overcast
3:56 AM 30.0 °F 24.1 °F 28.0 °F 92% 30.04 in 5.0 mi West 5.8 mph - N/A   Overcast
4:04 AM 30.2 °F 25.4 °F 28.4 °F 93% 30.00 in 6.0 mi West 4.6 mph - N/A   Overcast
4:21 AM 30.2 °F 24.3 °F 28.4 °F 93% 30.00 in 5.0 mi West 5.8 mph - N/A   Overcast
4:48 AM 30.2 °F 24.3 °F 28.4 °F 93% 29.99 in 5.0 mi West 5.8 mph - N/A   Overcast
5:19 AM 30.2 °F 25.4 °F 26.6 °F 86% 29.99 in 5.0 mi West 4.6 mph - N/A   Overcast
5:56 AM 28.9 °F 22.8 °F 27.0 °F 92% 30.03 in 5.0 mi WNW 5.8 mph - N/A   Overcast
6:32 AM 28.4 °F 19.1 °F 26.6 °F 93% 30.00 in 4.0 mi NW 10.4 mph 17.3 mph 0.00 in   Overcast
6:40 AM 28.4 °F 18.0 °F 24.8 °F 86% 30.01 in 5.0 mi NNW 12.7 mph - 0.00 in   Overcast
7:24 AM 28.4 °F 20.4 °F 24.8 °F 86% 30.02 in 7.0 mi NNW 8.1 mph - N/A   Overcast
7:56 AM 27.0 °F 18.7 °F 21.9 °F 81% 30.06 in 8.0 mi NNW 8.1 mph - N/A   Overcast
8:28 AM 26.6 °F 18.2 °F 21.2 °F 80% 30.02 in 7.0 mi NNW 8.1 mph - N/A   Overcast
8:56 AM 27.0 °F 19.5 °F 21.9 °F 81% 30.08 in 6.0 mi NW 6.9 mph - N/A   Haze
9:56 AM 27.0 °F 18.0 °F 21.0 °F 78% 30.10 in 7.0 mi NNW 9.2 mph - N/A   Overcast
11:56 AM 27.0 °F 18.7 °F 19.9 °F 75% 30.07 in 10.0 mi NNW 8.1 mph - N/A   Overcast
12:48 PM 24.8 °F 12.9 °F 19.4 °F 80% 30.01 in 10.0 mi North 13.8 mph - N/A   Overcast
12:56 PM 25.0 °F 13.6 °F 19.9 °F 81% 30.06 in 10.0 mi North 12.7 mph - N/A   Overcast
1:25 PM 24.8 °F 14.6 °F 19.4 °F 80% 30.03 in 10.0 mi North 10.4 mph - N/A   Overcast
1:56 PM 25.0 °F 14.8 °F 18.0 °F 75% 30.07 in 10.0 mi North 10.4 mph - N/A   Overcast
2:56 PM 24.1 °F 15.2 °F 18.0 °F 77% 30.07 in 10.0 mi North 8.1 mph - N/A   Overcast
4:56 PM 23.0 °F 14.7 °F 17.1 °F 78% 30.10 in 10.0 mi North 6.9 mph - N/A   Overcast
5:56 PM 21.9 °F 13.4 °F 16.0 °F 78% 30.11 in 10.0 mi North 6.9 mph - N/A   Overcast
6:56 PM 21.9 °F 14.5 °F 16.0 °F 78% 30.10 in 10.0 mi North 5.8 mph - N/A   Overcast
7:56 PM 21.0 °F 16.2 °F 16.0 °F 81% 30.12 in 10.0 mi NW 3.5 mph - N/A   Overcast
8:56 PM 19.9 °F 12.1 °F 14.0 °F 78% 30.12 in 10.0 mi WNW 5.8 mph - N/A   Overcast
9:56 PM 17.1 °F 11.7 °F 10.9 °F 77% 30.13 in 10.0 mi West 3.5 mph - N/A   Overcast
10:44 PM 12.2 °F 4.3 °F 6.8 °F 79% 30.08 in 10.0 mi West 4.6 mph - N/A   Scattered Clouds
10:56 PM 10.9 °F 2.9 °F 6.1 °F 81% 30.15 in 10.0 mi West 4.6 mph - N/A   Clear
11:56 PM 6.1 °F -4.3 °F 3.9 °F 91% 30.16 in 10.0 mi West 5.8 mph - N/A   Clear